Location: Newark
(34.6283°N, 36.0776°E)
Time: 04:41:19
(UTC+00:00)

A-11 Canister half - Pass Details

Date: 26 September 2019
Orbit: 1527 x 1682 km, 47.3° (Epoch: 20 October)

Event Time Altitude Azimuth Distance (km) Brightness Sun altitude
Rises 06:27:46 0° 305° (NW) 4,777 11.1 34.9°
Reaches altitude 10° 06:30:48 10° 304° (NW) 3,810 10.7 35.4°
Maximum altitude 06:40:34 81° 219° (SW) 1,652 9.8 37.1°
Drops below altitude 10° 06:50:36 10° 134° (SE) 3,912 12.4 38.8°
Sets 06:53:46 0° 133° (SE) 4,909 12.5 39.3°
